Alexander City, AL

11:49 PM CST on December 05, 2019 (GMT -0600)
Russell

Weather History for KALX - October, 2019

Change the Weather History Date:

Monday, October 21, 2019

  Actual Average (KAUO) Record (KAUO)
Temperature  
Mean Temperature 64 °F -  
Max Temperature 73 °F 73 °F 84 °F (1962)
Min Temperature 54 °F 47 °F 30 °F (1989)
Degree Days  
Heating Degree Days 2    
Growing Degree Days 14 (Base 50)    
Moisture  
Dew Point 63 °F    
Average Humidity 91    
Maximum Humidity 100    
Minimum Humidity 78    
Precipitation  
Precipitation 0.00 in - - ()
Sea Level Pressure  
Sea Level Pressure 29.94 in    
Wind  
Wind Speed 1 mph (SE)    
Max Wind Speed 7 mph    
Max Gust Speed -    
Visibility 9 miles    
Events Fog , Rain    
Averages and records for this station are not official NWS values.
T = Trace of Precipitation, MM = Missing Value Source: NWS Daily Summary

Daily Weather History Graph

Daily Weather History Graph

Search for Another Location

Airport or City:

Astronomy

Oct. 21, 2019 Rise Set
Actual Time 6:52 AM CDT 6:03 PM CDT
Civil Twilight 6:27 AM CDT 6:29 PM CDT
Nautical Twilight 5:58 AM CDT 6:57 PM CDT
Astronomical Twilight 5:29 AM CDT 7:26 PM CDT
Moon No Moon Rise 1:59 PM CDT (10/21)
Length of Visible Light 12h 01m
Length of Day
11h 11m
Waning Gibbous, 48% of the Moon is Illuminated
Oct 21
Waning Gibbous
Oct 27
New
Nov 4
First Quarter
Nov 12
Full
Nov 19
Last Quarter

Hourly Weather History & Observations

Time (CDT) Temp. Dew Point Humidity Pressure Visibility Wind Dir Wind Speed Gust Speed Precip Events Conditions
12:15 AM 58.3 °F 57.6 °F 97% 29.97 in 1.8 mi Calm Calm - N/A   Overcast
12:35 AM 59.9 °F 59.4 °F 98% 29.97 in 0.5 mi Calm Calm - N/A Fog Fog
12:55 AM 59.0 °F 58.8 °F 99% 29.96 in 0.8 mi Calm Calm - N/A   Overcast
1:15 AM 57.6 °F 57.2 °F 99% 29.96 in 1.2 mi Calm Calm - N/A   Overcast
1:35 AM 58.5 °F 58.1 °F 99% 29.96 in 3.0 mi Calm Calm - N/A   Mostly Cloudy
1:55 AM 59.0 °F 58.5 °F 98% 29.95 in 7.0 mi Calm Calm - N/A   Mostly Cloudy
2:15 AM 58.6 °F 58.3 °F 99% 29.95 in 7.0 mi Calm Calm - N/A   Scattered Clouds
2:35 AM 58.6 °F 58.3 °F 99% 29.95 in 10.0 mi Calm Calm - N/A   Clear
2:55 AM 58.5 °F 58.1 °F 99% 29.94 in 10.0 mi Calm Calm - N/A   Clear
3:15 AM 55.6 °F 55.2 °F 99% 29.94 in 10.0 mi Calm Calm - N/A   Clear
3:35 AM 55.6 °F 55.2 °F 99% 29.94 in 10.0 mi Calm Calm - N/A   Clear
3:55 AM 55.4 °F 54.9 °F 98% 29.93 in 7.0 mi Calm Calm - N/A   Scattered Clouds
4:15 AM 55.6 °F 55.2 °F 99% 29.93 in 0.8 mi Calm Calm - N/A   Mostly Cloudy
4:35 AM 55.4 °F 55.0 °F 99% 29.94 in 4.0 mi Calm Calm - N/A   Scattered Clouds
4:55 AM 55.9 °F 55.8 °F 99% 29.94 in 5.0 mi Calm Calm - N/A   Mostly Cloudy
5:15 AM 55.8 °F 55.6 °F 99% 29.95 in 4.0 mi Calm Calm - N/A   Overcast
5:35 AM 56.3 °F 56.1 °F 99% 29.95 in 7.0 mi Calm Calm - N/A   Scattered Clouds
5:55 AM 54.7 °F 54.7 °F 100% 29.95 in 10.0 mi Calm Calm - N/A   Clear
6:15 AM 55.6 °F 55.4 °F 99% 29.95 in 10.0 mi Calm Calm - N/A   Clear
6:35 AM 54.7 °F 54.5 °F 99% 29.95 in 10.0 mi Calm Calm - N/A   Clear
6:55 AM 56.8 °F 56.5 °F 99% 29.96 in 10.0 mi Calm Calm - N/A   Mostly Cloudy
7:35 AM 59.0 °F 58.6 °F 99% 29.96 in 10.0 mi Calm Calm - N/A   Mostly Cloudy
7:55 AM 59.2 °F 59.0 °F 99% 29.95 in 7.0 mi Calm Calm - N/A   Scattered Clouds
8:15 AM 60.4 °F 60.1 °F 99% 29.95 in 10.0 mi Calm Calm - N/A   Clear
8:35 AM 61.2 °F 60.8 °F 99% 29.97 in 10.0 mi Calm Calm - N/A   Clear
8:55 AM 62.2 °F 61.7 °F 98% 29.98 in 10.0 mi Calm Calm - N/A   Clear
9:15 AM 63.5 °F 63.0 °F 98% 29.97 in 10.0 mi ESE 3.5 mph - N/A   Scattered Clouds
9:35 AM 64.8 °F 64.2 °F 98% 29.97 in 10.0 mi Calm Calm - N/A   Scattered Clouds
9:55 AM 66.4 °F 65.3 °F 96% 29.97 in 10.0 mi ESE 4.6 mph - N/A   Scattered Clouds
10:15 AM 67.1 °F 65.5 °F 95% 29.97 in 10.0 mi SE 5.8 mph - N/A   Scattered Clouds
10:35 AM 68.4 °F 65.3 °F 90% 29.97 in 10.0 mi SSE 6.9 mph - N/A   Scattered Clouds
10:55 AM 70.2 °F 65.8 °F 86% 29.97 in 10.0 mi SE 4.6 mph - N/A   Scattered Clouds
11:15 AM 71.6 °F 65.1 °F 80% 29.98 in 10.0 mi South 5.8 mph - N/A   Scattered Clouds
11:35 AM 71.8 °F 64.8 °F 78% 29.98 in 10.0 mi SE 5.8 mph - N/A   Scattered Clouds
11:55 AM 72.3 °F 65.1 °F 78% 29.98 in 10.0 mi SSE 5.8 mph - N/A   Scattered Clouds
12:15 PM 72.1 °F 64.8 °F 78% 29.97 in 10.0 mi South 5.8 mph - N/A   Mostly Cloudy
12:35 PM 72.0 °F 65.3 °F 79% 29.97 in 10.0 mi SSE 5.8 mph - N/A   Mostly Cloudy
12:55 PM 72.0 °F 65.5 °F 80% 29.96 in 10.0 mi SSE 3.5 mph - N/A   Mostly Cloudy
1:15 PM 72.1 °F 66.0 °F 81% 29.96 in 10.0 mi SSE 4.6 mph - N/A   Scattered Clouds
1:35 PM 72.5 °F 66.4 °F 81% 29.95 in 10.0 mi SSE 6.9 mph - N/A   Mostly Cloudy
1:55 PM 72.9 °F 66.6 °F 81% 29.95 in 10.0 mi SSE 4.6 mph - N/A   Overcast
2:15 PM 73.2 °F 66.9 °F 81% 29.95 in 10.0 mi SE 3.5 mph - N/A   Mostly Cloudy
2:35 PM 73.2 °F 67.1 °F 81% 29.95 in 10.0 mi SE 3.5 mph - N/A   Overcast
2:55 PM 73.4 °F 67.5 °F 82% 29.94 in 10.0 mi ESE 4.6 mph - N/A   Mostly Cloudy
3:15 PM 73.8 °F 67.6 °F 81% 29.93 in 10.0 mi ESE 3.5 mph - N/A   Scattered Clouds
3:35 PM 73.4 °F 68.0 °F 83% 29.93 in 10.0 mi ESE 4.6 mph - N/A   Scattered Clouds
3:55 PM 73.6 °F 68.0 °F 83% 29.93 in 10.0 mi ESE 3.5 mph - N/A   Scattered Clouds
4:15 PM 73.6 °F 68.4 °F 84% 29.92 in 10.0 mi Calm Calm - N/A   Clear
4:35 PM 73.4 °F 68.4 °F 84% 29.92 in 10.0 mi Calm Calm - N/A   Scattered Clouds
4:55 PM 73.4 °F 68.9 °F 86% 29.91 in 10.0 mi ESE 3.5 mph - N/A   Scattered Clouds
5:15 PM 73.0 °F 68.9 °F 87% 29.91 in 10.0 mi Calm Calm - N/A   Clear
5:35 PM 72.5 °F 68.9 °F 88% 29.91 in 10.0 mi SSE 3.5 mph - N/A   Light Drizzle
5:55 PM 71.8 °F 67.1 °F 85% 29.93 in 10.0 mi WNW 6.9 mph - N/A   Mostly Cloudy
6:15 PM 71.8 °F 67.3 °F 86% 29.93 in 10.0 mi WNW 3.5 mph - N/A   Overcast
6:35 PM 71.2 °F 67.5 °F 88% 29.94 in 10.0 mi NNW 3.5 mph - N/A   Overcast
6:55 PM 71.1 °F 67.5 °F 88% 29.93 in 10.0 mi Calm Calm - N/A   Overcast
7:15 PM 70.7 °F 67.5 °F 89% 29.93 in 10.0 mi Calm Calm - N/A   Mostly Cloudy
7:35 PM 70.7 °F 67.6 °F 90% 29.93 in 10.0 mi SE 3.5 mph - N/A   Scattered Clouds
7:55 PM 70.9 °F 68.0 °F 91% 29.90 in 10.0 mi SE 6.9 mph - N/A   Scattered Clouds
8:15 PM 71.1 °F 67.6 °F 89% 29.90 in 10.0 mi Calm Calm - N/A   Scattered Clouds
8:35 PM 71.1 °F 67.6 °F 89% 29.90 in 10.0 mi SE 4.6 mph - N/A Rain Light Rain
8:55 PM 71.1 °F 67.5 °F 88% 29.91 in 10.0 mi Calm Calm - N/A   Scattered Clouds
9:15 PM 70.5 °F 67.5 °F 90% 29.90 in 10.0 mi SE 3.5 mph - N/A   Scattered Clouds
9:35 PM 70.7 °F 67.3 °F 89% 29.90 in 10.0 mi SE 3.5 mph - N/A   Scattered Clouds
9:55 PM 70.7 °F 67.3 °F 89% 29.91 in 10.0 mi Calm Calm - N/A   Mostly Cloudy
10:15 PM 70.0 °F 67.3 °F 91% 29.90 in 10.0 mi Calm Calm - N/A   Mostly Cloudy
10:35 PM 70.2 °F 67.1 °F 90% 29.90 in 10.0 mi Calm Calm - N/A   Mostly Cloudy
10:55 PM 70.3 °F 67.1 °F 89% 29.91 in 10.0 mi Calm Calm - N/A   Overcast
11:15 PM 70.5 °F 66.7 °F 88% 29.89 in 10.0 mi Calm Calm - N/A   Scattered Clouds
11:35 PM 70.5 °F 66.7 °F 88% 29.89 in 10.0 mi Calm Calm - N/A   Clear
11:55 PM 69.1 °F 66.9 °F 93% 29.88 in 10.0 mi Calm Calm - N/A   Scattered Clouds